OneWeb SL0348

operational
NORAD ID: 49213 Int'l Des: 2021-083 Owner: ONEWEBN Country: UK Constellation: oneweb
LEOCIRCULARPOLARONEWEB_TYPE

Über OneWeb SL0348

Beschreibung wird geladen...

Live-Position

3D-Globus wird geladen...

Nächste Überflüge

Höhenverlauf

Altitude vs Time

uPlot chart will show altitude changes over time

Zweizeiliger Elementsatz

1 49213U 21083AD 26036.75184816 .00000128 00000-0 28298-3 0 9993
2 49213 87.9218 300.6707 0002213 78.3933 281.7449 13.20772619219465
Epoch: 5. Feb. 2026 • Age: 19 hours

Aktueller Status

Höhe 1184.0 km
Geschwindigkeit 7.26 km/s
Subsatellitenpunkt 10.25°N, 147.23°E
Startdatum 14. Sept. 2021
Alter 4.3 years
Typ internet

Technische Details

Klassifizierung Payload
Masse 148.00 kg
Trockenmasse 140.00 kg
Gesamtmasse 148.00 kg
Länge 1.30 m
Durchmesser 1.00 m
Spannweite 5.00 m
Form Trapezoid+2 pan
Hersteller ONEWUS
Bus-Typ ARROW
Phasenstatus In Orbit
Besitzer/Staat ONEWEBN/UK

Große Konstellationen

Loading constellations...